Time,TemperatureF,DewpointF,PressureIn,WindDirection,WindDirectionDegrees,WindSpeedMPH,WindSpeedGustMPH,Humidity,HourlyPrecipIn,Conditions,Clouds,dailyrainin,SoftwareType,DateUTC
2013-01-23 00:00:00,24.5,8.5,30.29,NNE,22,0.0,1.0,50,0.00,,---,0.00,VWS V14.01,2013-01-23 05:00:00,
2013-01-23 00:30:00,24.2,9.6,30.30,NNE,22,0.0,1.0,53,0.00,,---,0.00,VWS V14.01,2013-01-23 05:30:00,
2013-01-23 01:00:00,24.0,8.9,30.30,NNE,22,0.0,1.0,52,0.00,,---,0.00,VWS V14.01,2013-01-23 06:00:00,
2013-01-23 01:30:00,24.0,6.2,30.30,NNE,22,0.0,1.0,46,0.00,,---,0.00,VWS V14.01,2013-01-23 06:30:00,
2013-01-23 02:00:00,23.0,8.9,30.31,NNE,22,0.0,1.0,54,0.00,,---,0.00,VWS V14.01,2013-01-23 07:00:00,
2013-01-23 02:30:00,22.7,10.2,30.32,NNE,22,0.0,0.0,58,0.00,,---,0.00,VWS V14.01,2013-01-23 07:30:00,
2013-01-23 03:00:00,22.6,10.4,30.32,NNE,22,0.0,1.0,59,0.00,,---,0.00,VWS V14.01,2013-01-23 08:00:00,
2013-01-23 03:30:00,22.5,8.4,30.32,NNE,22,0.0,1.0,54,0.00,,---,0.00,VWS V14.01,2013-01-23 08:30:00,
2013-01-23 04:00:00,21.7,10.0,30.32,NNE,22,0.0,1.0,60,0.00,,---,0.00,VWS V14.01,2013-01-23 09:00:00,
2013-01-23 04:30:00,20.8,9.9,30.33,NNE,22,0.0,1.0,62,0.00,,---,0.00,VWS V14.01,2013-01-23 09:30:00,
2013-01-23 05:00:00,20.5,11.3,30.34,NNE,22,0.0,1.0,67,0.00,,---,0.00,VWS V14.01,2013-01-23 10:00:00,
2013-01-23 05:30:00,20.1,10.6,30.34,NNE,22,0.0,1.0,66,0.00,,---,0.00,VWS V14.01,2013-01-23 10:30:00,
2013-01-23 06:00:00,19.9,9.7,30.34,NNE,22,0.0,1.0,64,0.00,,---,0.00,VWS V14.01,2013-01-23 11:00:00,
2013-01-23 06:30:00,19.8,10.6,30.34,NNE,22,0.0,1.0,67,0.00,,---,0.00,VWS V14.01,2013-01-23 11:30:00,
2013-01-23 07:00:00,19.7,10.5,30.36,NNE,22,0.0,0.0,67,0.00,,---,0.00,VWS V14.01,2013-01-23 12:00:00,
2013-01-23 07:30:00,20.0,10.8,30.36,NNE,22,0.0,0.0,67,0.00,,---,0.00,VWS V14.01,2013-01-23 12:30:00,
2013-01-23 08:00:00,19.8,11.9,30.36,NNE,22,0.0,0.0,71,0.00,,---,0.00,VWS V14.01,2013-01-23 13:00:00,
2013-01-23 08:30:00,21.7,11.4,30.36,NNE,22,0.0,0.0,64,0.00,,---,0.00,VWS V14.01,2013-01-23 13:30:00,
2013-01-23 09:00:00,25.4,6.5,30.38,WNW,292,0.0,2.0,44,0.00,,---,0.00,VWS V14.01,2013-01-23 14:00:00,
2013-01-23 09:30:00,26.7,7.2,30.38,North,0,0.0,3.0,43,0.00,,---,0.00,VWS V14.01,2013-01-23 14:30:00,
2013-01-23 10:00:00,28.0,5.1,30.39,WSW,248,1.0,4.0,37,0.00,,---,0.00,VWS V14.01,2013-01-23 15:00:00,
2013-01-23 10:30:00,29.7,4.1,30.40,NE,45,2.0,7.0,33,0.00,,---,0.00,VWS V14.01,2013-01-23 15:30:00,
2013-01-23 11:00:00,31.1,5.4,30.38,North,0,1.0,6.0,33,0.00,,---,0.00,VWS V14.01,2013-01-23 16:00:00,
2013-01-23 11:30:00,32.0,5.5,30.36,North,0,1.0,5.0,32,0.00,,---,0.00,VWS V14.01,2013-01-23 16:30:00,
2013-01-23 12:00:00,32.7,5.4,30.34,West,270,1.0,5.0,31,0.00,,---,0.00,VWS V14.01,2013-01-23 17:00:00,
2013-01-23 12:30:00,34.4,6.9,30.31,West,270,2.0,5.0,31,0.00,,---,0.00,VWS V14.01,2013-01-23 17:30:00,
2013-01-23 13:00:00,36.4,9.4,30.28,West,270,2.0,6.0,32,0.00,,---,0.00,VWS V14.01,2013-01-23 18:00:00,
2013-01-23 13:30:00,38.8,10.8,30.27,West,270,2.0,6.0,31,0.00,,---,0.00,VWS V14.01,2013-01-23 18:30:00,
2013-01-23 14:00:00,39.5,11.4,30.25,WNW,292,2.0,8.0,31,0.00,,---,0.00,VWS V14.01,2013-01-23 19:00:00,
2013-01-23 14:30:00,39.2,12.5,30.25,West,270,2.0,6.0,33,0.00,,---,0.00,VWS V14.01,2013-01-23 19:30:00,
2013-01-23 15:00:00,38.1,12.2,30.24,West,270,2.0,9.0,34,0.00,,---,0.00,VWS V14.01,2013-01-23 20:00:00,
2013-01-23 15:30:00,40.0,15.2,30.23,West,270,2.0,6.0,36,0.00,,---,0.00,VWS V14.01,2013-01-23 20:30:00,
2013-01-23 16:00:00,39.6,14.9,30.22,West,270,2.0,5.0,36,0.00,,---,0.00,VWS V14.01,2013-01-23 21:00:00,
2013-01-23 16:30:00,37.5,14.8,30.21,West,266,0.0,3.0,39,0.00,,---,0.00,VWS V14.01,2013-01-23 21:30:00,
2013-01-23 16:57:00,38.5,14.5,30.21,SSW,200,1.0,2.0,37,0.00,,---,0.00,VWS V14.01,2013-01-23 21:57:00,
2013-01-23 16:58:00,38.5,14.5,30.21,West,271,2.0,2.0,37,0.00,,---,0.00,VWS V14.01,2013-01-23 21:58:00,
2013-01-23 17:00:00,38.5,14.5,30.22,WSW,242,1.0,3.0,37,0.00,,---,0.00,VWS V14.01,2013-01-23 22:00:00,
2013-01-23 17:03:00,38.4,14.4,30.21,West,276,2.0,3.0,37,0.00,,---,0.00,VWS V14.01,2013-01-23 22:03:00,
2013-01-23 17:08:00,38.3,14.3,30.21,West,266,1.0,3.0,37,0.00,,---,0.00,VWS V14.01,2013-01-23 22:08:00,
2013-01-23 17:13:00,38.1,14.8,30.21,West,271,0.0,3.0,38,0.00,,---,0.00,VWS V14.01,2013-01-23 22:13:00,
2013-01-23 17:18:00,38.0,14.7,30.21,SW,236,0.0,3.0,38,0.00,,---,0.00,VWS V14.01,2013-01-23 22:18:00,
2013-01-23 17:23:00,37.9,14.6,30.21,WSW,246,0.0,3.0,38,0.00,,---,0.00,VWS V14.01,2013-01-23 22:23:00,
2013-01-23 17:28:00,37.6,14.3,30.21,West,274,1.0,3.0,38,0.00,,---,0.00,VWS V14.01,2013-01-23 22:28:00,
2013-01-23 17:30:00,33.3,15.3,30.20,West,267,0.0,0.0,47,0.00,,---,0.00,VWS V14.01,2013-01-23 22:30:00,
2013-01-23 17:33:00,37.4,15.3,30.21,West,267,0.0,1.0,40,0.00,,---,0.00,VWS V14.01,2013-01-23 22:33:00,
2013-01-23 17:38:00,37.1,15.0,30.21,West,266,0.0,1.0,40,0.00,,---,0.00,VWS V14.01,2013-01-23 22:38:00,
2013-01-23 17:43:00,36.9,14.9,30.21,West,267,0.0,1.0,40,0.00,,---,0.00,VWS V14.01,2013-01-23 22:43:00,
2013-01-23 17:48:00,36.5,15.1,30.21,West,267,0.0,1.0,41,0.00,,---,0.00,VWS V14.01,2013-01-23 22:48:00,
2013-01-23 17:53:00,36.0,14.6,30.21,West,267,0.0,1.0,41,0.00,,---,0.00,VWS V14.01,2013-01-23 22:53:00,
2013-01-23 17:58:00,35.5,14.7,30.20,West,266,0.0,1.0,42,0.00,,---,0.00,VWS V14.01,2013-01-23 22:58:00,
2013-01-23 18:00:00,32.0,16.8,30.18,West,267,0.0,0.0,53,0.00,,---,0.00,VWS V14.01,2013-01-23 23:00:00,
2013-01-23 18:03:00,35.1,14.9,30.20,West,267,0.0,0.0,43,0.00,,---,0.00,VWS V14.01,2013-01-23 23:03:00,
2013-01-23 18:08:00,34.7,14.5,30.20,West,266,0.0,0.0,43,0.00,,---,0.00,VWS V14.01,2013-01-23 23:08:00,
2013-01-23 18:14:00,34.3,14.7,30.20,West,267,0.0,0.0,44,0.00,,---,0.00,VWS V14.01,2013-01-23 23:14:00,
2013-01-23 18:19:00,33.9,14.8,30.20,West,267,0.0,0.0,45,0.00,,---,0.00,VWS V14.01,2013-01-23 23:19:00,
2013-01-23 18:24:00,33.6,15.0,30.19,West,267,0.0,0.0,46,0.00,,---,0.00,VWS V14.01,2013-01-23 23:24:00,
2013-01-23 18:29:00,33.3,15.3,30.19,West,267,0.0,0.0,47,0.00,,---,0.00,VWS V14.01,2013-01-23 23:29:00,
2013-01-23 18:30:00,31.2,16.1,30.17,West,266,0.0,1.0,53,0.00,,---,0.00,VWS V14.01,2013-01-23 23:30:00,
2013-01-23 18:34:00,33.1,15.6,30.20,West,266,0.0,0.0,48,0.00,,---,0.00,VWS V14.01,2013-01-23 23:34:00,
2013-01-23 18:39:00,33.2,15.6,30.19,West,267,0.0,0.0,48,0.00,,---,0.00,VWS V14.01,2013-01-23 23:39:00,
2013-01-23 18:44:00,33.0,15.5,30.19,West,266,0.0,0.0,48,0.00,,---,0.00,VWS V14.01,2013-01-23 23:44:00,
2013-01-23 18:49:00,32.7,16.1,30.19,West,266,0.0,0.0,50,0.00,,---,0.00,VWS V14.01,2013-01-23 23:49:00,
2013-01-23 18:54:00,32.3,17.1,30.18,West,267,0.0,0.0,53,0.00,,---,0.00,VWS V14.01,2013-01-23 23:54:00,
2013-01-23 19:00:00,32.0,16.8,30.18,West,267,0.0,0.0,53,0.00,,---,0.00,VWS V14.01,2013-01-24 00:00:00,
2013-01-23 19:05:00,31.7,17.0,30.18,West,267,0.0,0.0,54,0.00,,---,0.00,VWS V14.01,2013-01-24 00:05:00,
2013-01-23 19:10:00,31.5,16.4,30.18,West,266,0.0,0.0,53,0.00,,---,0.00,VWS V14.01,2013-01-24 00:10:00,
2013-01-23 19:15:00,31.2,16.1,30.17,West,266,0.0,0.0,53,0.00,,---,0.00,VWS V14.01,2013-01-24 00:15:00,
2013-01-23 19:20:00,31.2,16.5,30.18,West,267,0.0,0.0,54,0.00,,---,0.00,VWS V14.01,2013-01-24 00:20:00,
2013-01-23 19:25:00,31.2,16.5,30.17,West,266,0.0,1.0,54,0.00,,---,0.00,VWS V14.01,2013-01-24 00:25:00,
2013-01-23 19:30:00,31.2,16.5,30.17,West,266,0.0,0.0,54,0.00,,---,0.00,VWS V14.01,2013-01-24 00:30:00,
2013-01-23 19:35:00,31.1,16.0,30.17,West,267,0.0,0.0,53,0.00,,---,0.00,VWS V14.01,2013-01-24 00:35:00,
2013-01-23 19:40:00,30.9,16.2,30.17,West,266,0.0,0.0,54,0.00,,---,0.00,VWS V14.01,2013-01-24 00:40:00,
2013-01-23 19:45:00,30.7,16.0,30.17,West,266,0.0,0.0,54,0.00,,---,0.00,VWS V14.01,2013-01-24 00:45:00,
2013-01-23 19:50:00,30.7,16.9,30.17,West,267,0.0,0.0,56,0.00,,---,0.00,VWS V14.01,2013-01-24 00:50:00,
2013-01-23 19:56:00,31.1,15.5,30.17,SSW,196,0.0,2.0,52,0.00,,---,0.00,VWS V14.01,2013-01-24 00:56:00,
2013-01-23 20:00:00,30.0,17.8,30.15,SSE,163,0.0,0.0,60,0.00,,---,0.00,VWS V14.01,2013-01-24 01:00:00,
2013-01-23 20:01:00,31.6,16.9,30.17,SSW,196,0.0,0.0,54,0.00,,---,0.00,VWS V14.01,2013-01-24 01:01:00,
2013-01-23 20:06:00,31.6,17.3,30.16,SSW,195,0.0,0.0,55,0.00,,---,0.00,VWS V14.01,2013-01-24 01:06:00,
2013-01-23 20:11:00,31.4,17.5,30.16,SSW,196,0.0,1.0,56,0.00,,---,0.00,VWS V14.01,2013-01-24 01:11:00,
2013-01-23 20:16:00,31.1,17.7,30.16,SSW,195,0.0,1.0,57,0.00,,---,0.00,VWS V14.01,2013-01-24 01:16:00,
2013-01-23 20:21:00,31.1,18.1,30.16,SSW,195,0.0,1.0,58,0.00,,---,0.00,VWS V14.01,2013-01-24 01:21:00,
2013-01-23 20:26:00,30.9,18.3,30.16,SSW,195,0.0,1.0,59,0.00,,---,0.00,VWS V14.01,2013-01-24 01:26:00,
2013-01-23 20:30:00,30.4,17.8,30.14,SSE,163,0.0,0.0,59,0.00,,---,0.00,VWS V14.01,2013-01-24 01:30:00,
2013-01-23 20:31:00,30.8,18.2,30.16,SSW,195,0.0,0.0,59,0.00,,---,0.00,VWS V14.01,2013-01-24 01:31:00,
2013-01-23 20:36:00,30.6,18.8,30.16,SSW,195,0.0,0.0,61,0.00,,---,0.00,VWS V14.01,2013-01-24 01:36:00,
2013-01-23 20:41:00,30.4,18.6,30.16,SSW,195,0.0,0.0,61,0.00,,---,0.00,VWS V14.01,2013-01-24 01:41:00,
2013-01-23 20:46:00,30.2,18.4,30.15,SSW,195,0.0,0.0,61,0.00,,---,0.00,VWS V14.01,2013-01-24 01:46:00,
2013-01-23 20:51:00,30.0,18.6,30.15,SSW,195,0.0,0.0,62,0.00,,---,0.00,VWS V14.01,2013-01-24 01:51:00,
2013-01-23 20:56:00,29.9,17.3,30.15,SSW,195,0.0,0.0,59,0.00,,---,0.00,VWS V14.01,2013-01-24 01:56:00,
2013-01-23 21:00:00,31.2,16.5,30.12,SSE,168,0.0,1.0,54,0.00,,---,0.00,VWS V14.01,2013-01-24 02:00:00,
2013-01-23 21:01:00,30.1,17.5,30.15,SSE,163,0.0,0.0,59,0.00,,---,0.00,VWS V14.01,2013-01-24 02:01:00,
2013-01-23 21:07:00,30.2,17.2,30.15,SSE,163,0.0,0.0,58,0.00,,---,0.00,VWS V14.01,2013-01-24 02:07:00,
2013-01-23 21:12:00,30.2,17.6,30.15,SSE,163,0.0,0.0,59,0.00,,---,0.00,VWS V14.01,2013-01-24 02:12:00,
2013-01-23 21:17:00,30.3,16.5,30.14,SSE,163,0.0,0.0,56,0.00,,---,0.00,VWS V14.01,2013-01-24 02:17:00,
2013-01-23 21:22:00,30.2,16.4,30.14,SSE,163,0.0,0.0,56,0.00,,---,0.00,VWS V14.01,2013-01-24 02:22:00,
2013-01-23 21:27:00,30.2,16.4,30.14,SSE,163,0.0,0.0,56,0.00,,---,0.00,VWS V14.01,2013-01-24 02:27:00,
2013-01-23 21:30:00,31.7,17.4,30.12,SSW,204,0.0,2.0,55,0.00,,---,0.00,VWS V14.01,2013-01-24 02:30:00,
2013-01-23 21:32:00,30.4,17.0,30.14,SSE,163,0.0,0.0,57,0.00,,---,0.00,VWS V14.01,2013-01-24 02:32:00,
2013-01-23 21:37:00,30.4,17.0,30.14,South,185,0.0,0.0,57,0.00,,---,0.00,VWS V14.01,2013-01-24 02:37:00,
2013-01-23 21:42:00,30.4,17.0,30.13,South,185,0.0,0.0,57,0.00,,---,0.00,VWS V14.01,2013-01-24 02:42:00,
2013-01-23 21:47:00,30.4,16.6,30.13,South,183,0.0,0.0,56,0.00,,---,0.00,VWS V14.01,2013-01-24 02:47:00,
2013-01-23 21:52:00,30.7,16.5,30.13,SE,146,0.0,1.0,55,0.00,,---,0.00,VWS V14.01,2013-01-24 02:52:00,
2013-01-23 21:57:00,31.0,16.7,30.13,SSE,167,0.0,1.0,55,0.00,,---,0.00,VWS V14.01,2013-01-24 02:57:00,
2013-01-23 22:00:00,31.8,17.1,30.09,SE,139,1.0,2.0,54,0.00,,---,0.00,VWS V14.01,2013-01-24 03:00:00,
2013-01-23 22:02:00,31.4,16.7,30.12,SSE,167,1.0,1.0,54,0.00,,---,0.00,VWS V14.01,2013-01-24 03:02:00,
2013-01-23 22:07:00,31.5,17.2,30.12,SW,221,0.0,1.0,55,0.00,,---,0.00,VWS V14.01,2013-01-24 03:07:00,
2013-01-23 22:12:00,31.5,16.8,30.12,South,179,1.0,1.0,54,0.00,,---,0.00,VWS V14.01,2013-01-24 03:12:00,
2013-01-23 22:18:00,31.7,17.4,30.12,SSW,207,1.0,2.0,55,0.00,,---,0.00,VWS V14.01,2013-01-24 03:18:00,
2013-01-23 22:23:00,31.8,17.5,30.12,SSW,207,0.0,2.0,55,0.00,,---,0.00,VWS V14.01,2013-01-24 03:23:00,
2013-01-23 22:28:00,31.7,17.4,30.12,SSW,204,1.0,2.0,55,0.00,,---,0.00,VWS V14.01,2013-01-24 03:28:00,
2013-01-23 22:30:00,32.9,17.2,30.08,SW,225,1.0,4.0,52,0.00,,---,0.00,VWS V14.01,2013-01-24 03:30:00,
2013-01-23 22:33:00,31.7,17.4,30.11,SSW,204,0.0,1.0,55,0.00,,---,0.00,VWS V14.01,2013-01-24 03:33:00,
2013-01-23 22:38:00,31.7,17.0,30.11,SSW,192,0.0,2.0,54,0.00,,---,0.00,VWS V14.01,2013-01-24 03:38:00,
2013-01-23 22:43:00,31.8,17.5,30.11,SSE,158,1.0,2.0,55,0.00,,---,0.00,VWS V14.01,2013-01-24 03:43:00,
2013-01-23 22:48:00,31.8,17.1,30.11,SE,146,0.0,2.0,54,0.00,,---,0.00,VWS V14.01,2013-01-24 03:48:00,
2013-01-23 22:53:00,31.9,17.2,30.10,SE,146,1.0,2.0,54,0.00,,---,0.00,VWS V14.01,2013-01-24 03:53:00,
2013-01-23 22:58:00,31.8,17.1,30.10,SE,129,1.0,2.0,54,0.00,,---,0.00,VWS V14.01,2013-01-24 03:58:00,
2013-01-23 23:00:00,33.3,18.0,30.07,SSW,200,0.0,5.0,53,0.00,,---,0.00,VWS V14.01,2013-01-24 04:00:00,
2013-01-23 23:03:00,32.0,16.8,30.09,SSE,163,1.0,2.0,53,0.00,,---,0.00,VWS V14.01,2013-01-24 04:03:00,
2013-01-23 23:09:00,32.1,16.9,30.09,SW,222,2.0,2.0,53,0.00,,---,0.00,VWS V14.01,2013-01-24 04:09:00,
2013-01-23 23:14:00,32.4,17.2,30.09,South,184,1.0,3.0,53,0.00,,---,0.00,VWS V14.01,2013-01-24 04:14:00,
2013-01-23 23:19:00,32.6,16.9,30.09,SE,134,1.0,4.0,52,0.00,,---,0.00,VWS V14.01,2013-01-24 04:19:00,
2013-01-23 23:24:00,32.8,17.1,30.09,SSE,156,2.0,4.0,52,0.00,,---,0.00,VWS V14.01,2013-01-24 04:24:00,
2013-01-23 23:29:00,32.8,17.6,30.08,WSW,238,1.0,4.0,53,0.00,,---,0.00,VWS V14.01,2013-01-24 04:29:00,
2013-01-23 23:30:00,32.9,18.9,30.05,SW,222,0.0,4.0,56,0.00,,---,0.00,VWS V14.01,2013-01-24 04:30:00,
2013-01-23 23:34:00,32.8,17.6,30.08,South,172,1.0,3.0,53,0.00,,---,0.00,VWS V14.01,2013-01-24 04:34:00,
2013-01-23 23:39:00,33.0,17.8,30.08,South,169,2.0,5.0,53,0.00,,---,0.00,VWS V14.01,2013-01-24 04:39:00,
2013-01-23 23:44:00,33.3,17.6,30.07,ESE,122,1.0,5.0,52,0.00,,---,0.00,VWS V14.01,2013-01-24 04:44:00,
2013-01-23 23:49:00,33.3,17.6,30.07,SW,221,2.0,5.0,52,0.00,,---,0.00,VWS V14.01,2013-01-24 04:49:00,
2013-01-23 23:54:00,33.3,18.0,30.07,SW,215,0.0,5.0,53,0.00,,---,0.00,VWS V14.01,2013-01-24 04:54:00,